Regional Weather Roundup
Issued by NWS

Home | Current Version | Previous Version | Text Only | Print | Product List | Glossary Off
Versions: 1 2 3 4 5 6 7 8 9 10 11 12 13 14 15 16 17 18 19 20 21 22 23 24 25 26 27 28 29 30 31 32 33 34 35 36 37 38 39 40 41 42 43 44 45 46 47 48 49 50

000
ASUS43 KMPX 311810
RWRMN
WEATHER ROUNDUP FOR MINNESOTA
NATIONAL WEATHER SERVICE TWIN CITIES/CHANHASSEN MN
100 PM CDT TUE MAY 31 2016


NOTE: "FAIR" INDICATES FEW OR NO CLOUDS BELOW 12,000 FEET WITH NO
SIGNIFICANT WEATHER AND/OR OBSTRUCTIONS TO VISIBILITY. N/A MEANS
CURRENT SKY AND/OR WEATHER CONDITIONS ARE NOT AVAILABLE.

MNZ060>063-068>070-311900-
   Twin Cities Metro

CITY           SKY/WX    TMP DP  RH WIND       PRES   REMARKS
TWIN CITIES    CLOUDY    70  60  70 SW10      29.87S
6HR MIN TEMP:  64; 6HR MAX TEMP:  71; 6HR PCP:  0.02;

ST PAUL        CLOUDY    69  63  81 SW7       29.88S
CRYSTAL        CLOUDY    71  60  68 S9        29.85F
BLAINE         CLOUDY    72  64  78 SW9G16    29.87S
EDEN PRAIRIE   LGT RAIN  71  62  73 SW12      29.86S
6HR MIN TEMP:  66; 6HR MAX TEMP:  71; 6HR PCP:  0.02;

SOUTH ST PAUL  CLOUDY    70  64  81 S7        29.87F
LAKE ELMO      PTSUNNY   70  64  83 S9        29.89F
$$
MNZ001>005-007-008-013>017-022>024-027-028-311900-
   Northwest Minnesota

CITY           SKY/WX    TMP DP  RH WIND       PRES   REMARKS
BEMIDJI        CLOUDY    55  53  94 SE13      29.80R
HALLOCK        DRIZZLE   64  61  88 SE12      29.68S
ROSEAU         CLOUDY    54  48  82 SE18G26   29.75F
WARROAD        CLOUDY    52  48  87 SE18      29.79S
THIEF RVR FALL CLOUDY    63  55  77 S14       29.73F
CROOKSTON      MOSUNNY   66  57  72 SW17G24   29.72S
FOSSTON        CLOUDY    64  61  88 SW10      29.76S
DETROIT LAKES  MOSUNNY   64  54  68 SW14      29.79S
MOORHEAD       MOSUNNY   66  50  55 SW15      29.76F
PARK RAPIDS    CLOUDY    63  59  87 SE8       29.79S
MAHNOMEN       CLOUDY    63  57  79 SW16      29.75F
$$
MNZ006-009>011-018-025>026-311900-
   North Central Minnesota

CITY           SKY/WX    TMP DP  RH WIND       PRES   REMARKS
BAUDETTE       CLOUDY    50  47  89 SE18G26   29.81S
FLAG ISLAND    RAIN      52  50  93 SE10G21   29.80R
INTL FALLS     RAIN      50  47  89 SE15G26   29.86F FOG
6HR MIN TEMP:  48; 6HR MAX TEMP:  52; 6HR PCP:  0.60;

WASKISH        CLOUDY    52  52 100 E10G20    29.81S
BIG FORK       DRIZZLE   52  50  93 SE6       29.85S
LONGVILLE      CLOUDY    54  52  94 SE8       29.83R
GRAND RAPIDS   LGT RAIN  49  48  97 E8        29.87S
CRANE LAKE     RAIN      48  46  93 SE5       29.93S
ORR            LGT RAIN  50  46  87 SE7       29.85F
COOK           LGT RAIN  50  48  93 E5        29.89S
WALKER         CLOUDY    54  53  95 SE8       29.81S
$$
MNZ012-019>021-037-311900-
   Northeast Minnesota

CITY           SKY/WX    TMP DP  RH WIND       PRES   REMARKS
DULUTH         LGT RAIN  45  43  93 E12       29.92S FOG
6HR MIN TEMP:  44; 6HR MAX TEMP:  47; 6HR PCP:  0.04;

ELY            LGT RAIN  50  45  81 E8G18     29.92F
HIBBING        LGT RAIN  48  47  96 SE10      29.88F FOG
EVELETH        CLOUDY    48  46  93 E5        29.91S
DULUTH HARBOR  CLOUDY    43  41  93 NE25      29.95F
TWO HARBORS    CLOUDY    46  43  87 NE14G20   29.93F HAZE
SILVER BAY     LGT RAIN  46  43  87 NE16G23   29.95F
GRAND MARAIS     N/A     47  38  71 NE16G30   30.03F
G MARAIS ARPRT CLOUDY    46  37  71 E15G22    30.03F
$$
MNZ029>031-032-039>041-046>048-054>057-064-311900-
   West Central Minnesota

CITY           SKY/WX    TMP DP  RH WIND       PRES   REMARKS
FERGUS FALLS   MOSUNNY   66  50  55 W15       29.78R
WHEATON        MOSUNNY   68  54  60 SW15      29.83S
MORRIS         SUNNY     70  52  52 SW16      29.83R
ALEXANDRIA     PTSUNNY   66  53  63 W14       29.84S
ELBOW LAKE     FAIR      66  52  59 SW16      29.83R
WADENA         PTSUNNY   64  57  77 SW12      29.80F
GLENWOOD       MOSUNNY   68  55  64 SW16      29.85R
APPLETON       SUNNY     70  50  49 SW16      29.84S
BENSON         SUNNY     70  50  49 W12G17    29.85S
ORTONVILLE     MOSUNNY   70  48  46 SW10G20   29.83F
MADISON        SUNNY     70  50  49 W10G18    29.85F
WILLMAR        FAIR      70  57  64 W14       29.87S
$$
MNZ033>034-036-042>043-049>051-058-059-311900-
   Central Minnesota

CITY           SKY/WX    TMP DP  RH WIND       PRES   REMARKS
ST CLOUD       CLOUDY    66  59  78 SW12      29.85S
6HR MIN TEMP:  62; 6HR MAX TEMP:  67; 6HR PCP:  0.03;

SAUK CENTRE    CLOUDY    67  57  70 SW13      29.84S
PAYNESVILLE    CLOUDY    68  57  67 SW12      29.86S
AITKIN         CLOUDY    55  52  88 E8        29.84S
PINE RIVER     CLOUDY    55  55 100 SE12      29.86S
BRAINERD       CLOUDY    62  60  93 SE7       29.83S
STAPLES        CLOUDY    66  55  68 SW8G16    29.82R
LONG PRAIRIE   PTSUNNY   66  55  68 S10G18    29.83F
LITTLE FALLS   CLOUDY    64  54  68 SW9       29.84S
LITCHFIELD     CLOUDY    66  61  82 SW3       29.88R
BUFFALO        CLOUDY    67  59  75 SW8       29.87S
MAPLE LAKE     CLOUDY    68  61  78 SW6       29.87R
HUTCHINSON     CLOUDY    66  58  76 SW10      29.90R
$$
MNZ037-044-045-052-053-311900-
   East Central Minnesota

CITY           SKY/WX    TMP DP  RH WIND       PRES   REMARKS
PRINCETON      PTSUNNY   72  63  73 S8        29.85S
MORA           CLOUDY    64  63  94 S6        29.87S
CAMBRIDGE      PTSUNNY   72  59  64 S14       29.84S
RUSH CITY      CLOUDY    67  63  87 S9        29.87S
MOOSE LAKE     DRIZZLE   45  43  93 NE7       29.89S
HINCKLEY       LGT RAIN  59  59 100 NW5       29.88S
CLOQUET        RAIN      45  43  93 E10G17    29.91S
MCGREGOR       CLOUDY    50  46  87 E8        29.87S
$$
MNZ071>073-080-081-089-090-097-098-311900-
   Southwest Minnesota

CITY           SKY/WX    TMP DP  RH WIND       PRES   REMARKS
MONTEVIDEO     SUNNY     72  54  53 NW12      29.88R
GRANITE FALLS  SUNNY     71  56  60 SW16      29.89R
CANBY          SUNNY     71  51  48 NW15G21   29.88F
MARSHALL       SUNNY     69  49  48 W21       29.89R
REDWOOD FALLS  PTSUNNY   70  56  61 W9        29.88S
OLIVIA         PTSUNNY   73  63  68 W10       29.87S
PIPESTONE      SUNNY     66  50  55 NW13G21   29.92S
WINDOM         CLOUDY    68  55  64 W6        29.91F
WORTHINGTON    PTSUNNY   66  55  67 W15       29.94S
JACKSON        CLOUDY    64  55  72 W9        29.93F
TRACY          MOSUNNY   69  56  63 W10G16    29.90S
SLAYTON        SUNNY     67  54  63 W12G23    29.92S
$$
MNZ065>067-074>077-082>085-091>093-311900-
   South Central Minnesota

CITY           SKY/WX    TMP DP  RH WIND       PRES   REMARKS
MANKATO        CLOUDY    66  59  77 SW14      29.89S
NEW ULM        CLOUDY    66  59  77 SW12G23   29.90S
ST JAMES         N/A    N/A N/A N/A SW14      29.93R
FAIRMONT       CLOUDY    64  57  77 W12       29.91S
GLENCOE        DRIZZLE   66  61  85 SW10      29.88R
FARIBAULT      CLOUDY    70  64  83 S5        29.89S
OWATONNA       CLOUDY    70  63  78 SW15      29.89S
WASECA         CLOUDY    68  61  77 SW12      29.91S
ALBERT LEA     CLOUDY    72  63  73 W8        29.88F THUNDER
$$
MNZ078>079-086>088-094>096-311900-
   Southeast Minnesota

CITY           SKY/WX    TMP DP  RH WIND       PRES   REMARKS
ROCHESTER      CLOUDY    76  63  64 S17       29.89S
6HR MIN TEMP:  63; 6HR MAX TEMP:  76;

RED WING       PTSUNNY   73  63  68 NW6       29.87R
STANTON        CLOUDY    69  62  78 SW9       29.88S
DODGE CENTER   CLOUDY    79  59  50 SW9       29.88F
WINONA         PTSUNNY   79  61  53 S7        29.88F
AUSTIN         CLOUDY    73  63  68 S9        29.87F
PRESTON        MOSUNNY   77  59  54 SW16      29.90F
$$
ABBREVIATIONS USED IN REMARKS
   TC - TEMPERATURES IN CELSIUS
  WCI - WIND CHILL INDEX
   HX - HEAT INDEX
  VSB - VISIBILITY
$$




USA.gov is the U.S. government's official web portal to all federal, state and local government web resources and services.